Location: Maiden
(35.5760°N, 81.2120°W)
Time: 06:56:18
(UTC-04:00)

ERS-2 - Pass Details

Date: 14 June 2018
Orbit: 496 x 503 km, 98.5° (Epoch: 21 October)

Event Time Altitude Azimuth Distance (km) Brightness Sun altitude
Exits shadow 21:16:01 - 153° (SSE) 2,061 4.7 -6.7°
Reaches altitude 10° 21:16:52 10° 150° (SSE) 1,705 4.3 -6.9°
Maximum altitude 21:20:26 51° 74° (ENE) 639 2.4 -7.4°
Drops below altitude 10° 21:24:01 10° 358° (N) 1,714 5.4 -8.0°
Sets 21:26:08 0° 353° (N) 2,601 6.5 -8.4°
